WMT7UV LROP-EHEH

Flight info

Callsign WMT7UV
Flight time 2h 43m
Altitude 36000
Route SOKRU DCT IBINU DCT BUDOP DCT BADOV DCT ODNEM DCT ELMEK DCT VEXIL DCT KATCE DCT WRB DCT DOMEG DCT ROTEK
Aircraft A321/M-SDE1E2E3FGIJ1J4RWXY/LB1

Departure

Time 2026-05-06 12:13
Airport Bucharest Henri Coandă International Airport (LROP)

Arrival

Time 2026-05-06 14:56
Airport Eindhoven Airport (EHEH)
Time Latitude Longitude Altitude Speed Heading
2026-05-06 11:55 44.57009 26.07961 320 ft 0 kts 353°
2026-05-06 12:04 44.57000 26.07963 320 ft 2 kts 355°
2026-05-06 12:04 44.56985 26.07964 320 ft 2 kts 354°
2026-05-06 12:04 44.56970 26.07967 320 ft 2 kts 354°
2026-05-06 12:05 44.56955 26.07969 320 ft 2 kts 354°
2026-05-06 12:05 44.56940 26.07971 320 ft 2 kts 354°
2026-05-06 12:05 44.56925 26.07972 320 ft 2 kts 354°
2026-05-06 12:05 44.56910 26.07975 320 ft 2 kts 354°
2026-05-06 12:06 44.56898 26.07976 320 ft 0 kts 354°
2026-05-06 12:06 44.56896 26.07976 320 ft 0 kts 354°
2026-05-06 12:08 44.56905 26.07978 320 ft 4 kts 13°
2026-05-06 12:08 44.56931 26.08031 320 ft 7 kts 79°
2026-05-06 12:08 44.56937 26.08120 320 ft 10 kts 84°
2026-05-06 12:08 44.56945 26.08223 320 ft 10 kts 84°
2026-05-06 12:09 44.56953 26.08327 320 ft 10 kts 83°
2026-05-06 12:09 44.56999 26.08389 320 ft 10 kts 359°
2026-05-06 12:09 44.57072 26.08375 320 ft 10 kts 353°
2026-05-06 12:09 44.57155 26.08364 320 ft 12 kts 354°
2026-05-06 12:10 44.57224 26.08388 320 ft 10 kts 66°
2026-05-06 12:10 44.57245 26.08481 320 ft 9 kts 42°
2026-05-06 12:10 44.57312 26.08491 320 ft 10 kts 354°
2026-05-06 12:10 44.57382 26.08480 320 ft 10 kts 353°
2026-05-06 12:11 44.57454 26.08469 320 ft 10 kts 354°
2026-05-06 12:11 44.57527 26.08459 320 ft 11 kts 354°
2026-05-06 12:11 44.57606 26.08448 320 ft 11 kts 354°
2026-05-06 12:11 44.57666 26.08484 320 ft 10 kts 75°
2026-05-06 12:12 44.57683 26.08698 320 ft 49 kts 83°
2026-05-06 12:12 44.57744 26.09501 320 ft 113 kts 84°
2026-05-06 12:12 44.57848 26.10879 321 ft 167 kts 84°
2026-05-06 12:12 44.57969 26.12615 611 ft 186 kts 84°
2026-05-06 12:13 44.58086 26.14424 1254 ft 186 kts 84°
2026-05-06 12:13 44.58223 26.16186 1816 ft 184 kts 83°
2026-05-06 12:13 44.58373 26.18049 2043 ft 195 kts 83°
2026-05-06 12:13 44.58562 26.19990 2273 ft 207 kts 74°
2026-05-06 12:14 44.59260 26.21771 2494 ft 218 kts 45°
2026-05-06 12:14 44.60596 26.22874 2672 ft 234 kts 12°
2026-05-06 12:14 44.62265 26.22748 2927 ft 249 kts 337°
2026-05-06 12:14 44.63642 26.21264 3384 ft 255 kts 308°
2026-05-06 12:15 44.64775 26.19383 3999 ft 256 kts 320°
2026-05-06 12:15 44.66360 26.18329 4560 ft 258 kts 348°
2026-05-06 12:15 44.68141 26.17938 5204 ft 259 kts 353°
2026-05-06 12:15 44.69926 26.17673 5815 ft 262 kts 355°
2026-05-06 12:16 44.71738 26.17425 6449 ft 265 kts 355°
2026-05-06 12:16 44.73582 26.17168 7099 ft 267 kts 354°
2026-05-06 12:16 44.75418 26.16818 7722 ft 270 kts 344°
2026-05-06 12:16 44.77077 26.15589 8312 ft 274 kts 318°
2026-05-06 12:17 44.78243 26.13543 8811 ft 262 kts 303°
2026-05-06 12:17 44.79229 26.11252 9079 ft 284 kts 301°
2026-05-06 12:17 44.80261 26.08789 9635 ft 295 kts 301°
2026-05-06 12:17 44.81316 26.06319 10364 ft 299 kts 301°
2026-05-06 12:18 44.82431 26.03747 10818 ft 313 kts 302°
2026-05-06 12:18 44.83600 26.01075 11146 ft 331 kts 302°
2026-05-06 12:18 44.84840 25.98247 11699 ft 341 kts 302°
2026-05-06 12:18 44.86000 25.95353 12428 ft 344 kts 296°
2026-05-06 12:19 44.86955 25.92236 13142 ft 347 kts 290°
2026-05-06 12:19 44.87698 25.88999 13819 ft 351 kts 287°
2026-05-06 12:19 44.88394 25.85674 14486 ft 354 kts 286°
2026-05-06 12:19 44.89079 25.82356 15131 ft 358 kts 286°
2026-05-06 12:20 44.89777 25.78981 15787 ft 361 kts 286°
2026-05-06 12:20 44.90484 25.75572 16427 ft 363 kts 286°
2026-05-06 12:20 44.91194 25.72161 17022 ft 367 kts 286°
2026-05-06 12:20 44.91917 25.68688 17610 ft 370 kts 286°
2026-05-06 12:21 44.92643 25.65201 18186 ft 373 kts 286°
2026-05-06 12:21 44.93375 25.61680 18762 ft 376 kts 285°
2026-05-06 12:21 44.94122 25.58090 19307 ft 379 kts 285°
2026-05-06 12:21 44.94860 25.54527 19831 ft 382 kts 285°
2026-05-06 12:22 44.95614 25.50887 20359 ft 385 kts 285°
2026-05-06 12:22 44.96365 25.47247 20865 ft 387 kts 285°
2026-05-06 12:22 44.97112 25.43619 21350 ft 390 kts 285°
2026-05-06 12:22 44.97867 25.39950 21820 ft 392 kts 285°
2026-05-06 12:23 44.98667 25.36249 22265 ft 395 kts 289°
2026-05-06 12:23 44.99724 25.32618 22700 ft 399 kts 294°
2026-05-06 12:23 45.01062 25.29188 23110 ft 403 kts 300°
2026-05-06 12:23 45.02584 25.25853 23515 ft 406 kts 302°
2026-05-06 12:24 45.04157 25.22512 23901 ft 408 kts 302°
2026-05-06 12:24 45.05732 25.19168 24265 ft 411 kts 302°
2026-05-06 12:24 45.07291 25.15806 24770 ft 409 kts 304°
2026-05-06 12:24 45.08819 25.12533 25557 ft 398 kts 303°
2026-05-06 12:25 45.10341 25.09283 26165 ft 393 kts 303°
2026-05-06 12:25 45.11853 25.06041 26495 ft 396 kts 302°
2026-05-06 12:25 45.13369 25.02775 26759 ft 399 kts 301°
2026-05-06 12:25 45.14883 24.99507 27035 ft 401 kts 301°
2026-05-06 12:26 45.16410 24.96199 27300 ft 404 kts 301°
2026-05-06 12:26 45.17942 24.92870 27559 ft 407 kts 301°
2026-05-06 12:26 45.19505 24.89471 27849 ft 409 kts 301°
2026-05-06 12:26 45.21047 24.86118 28129 ft 411 kts 301°
2026-05-06 12:27 45.22614 24.82704 28402 ft 413 kts 301°
2026-05-06 12:27 45.24169 24.79315 28679 ft 414 kts 301°
2026-05-06 12:27 45.25745 24.75877 28953 ft 416 kts 301°
2026-05-06 12:27 45.27317 24.72443 29210 ft 418 kts 301°
2026-05-06 12:28 45.28912 24.68958 29474 ft 419 kts 301°
2026-05-06 12:28 45.30482 24.65522 29723 ft 420 kts 300°
2026-05-06 12:28 45.32079 24.62020 29964 ft 422 kts 301°
2026-05-06 12:28 45.33667 24.58534 30198 ft 424 kts 301°
2026-05-06 12:29 45.35279 24.54995 30429 ft 425 kts 301°
2026-05-06 12:29 45.36868 24.51500 30657 ft 426 kts 300°
2026-05-06 12:29 45.38487 24.47934 30882 ft 428 kts 300°
2026-05-06 12:29 45.40092 24.44399 31095 ft 429 kts 300°
2026-05-06 12:30 45.41721 24.40802 31312 ft 430 kts 300°
2026-05-06 12:30 45.43338 24.37232 31556 ft 430 kts 300°
2026-05-06 12:30 45.44956 24.33654 31834 ft 430 kts 300°
2026-05-06 12:30 45.46565 24.30086 32149 ft 428 kts 300°
2026-05-06 12:31 45.48155 24.26562 32457 ft 427 kts 299°
2026-05-06 12:31 45.49777 24.22959 32728 ft 426 kts 299°
2026-05-06 12:31 45.51357 24.19443 32985 ft 426 kts 299°
2026-05-06 12:31 45.52964 24.15864 33242 ft 425 kts 299°
2026-05-06 12:32 45.54535 24.12359 33491 ft 424 kts 299°
2026-05-06 12:32 45.56125 24.08807 33732 ft 424 kts 299°
2026-05-06 12:32 45.57714 24.05251 33968 ft 423 kts 299°
2026-05-06 12:32 45.59298 24.01698 34189 ft 423 kts 299°
2026-05-06 12:33 45.60880 23.98148 34388 ft 423 kts 299°
2026-05-06 12:33 45.62446 23.94632 34562 ft 424 kts 299°
2026-05-06 12:33 45.64036 23.91057 34718 ft 425 kts 299°
2026-05-06 12:33 45.65625 23.87479 34891 ft 425 kts 299°
2026-05-06 12:34 45.67205 23.83917 35076 ft 426 kts 299°
2026-05-06 12:34 45.68798 23.80325 35233 ft 426 kts 299°
2026-05-06 12:34 45.70375 23.76763 35388 ft 427 kts 299°
2026-05-06 12:34 45.71971 23.73155 35547 ft 427 kts 299°
2026-05-06 12:35 45.73553 23.69572 35700 ft 427 kts 299°
2026-05-06 12:35 45.75123 23.66013 35812 ft 428 kts 299°
2026-05-06 12:35 45.76712 23.62404 35935 ft 429 kts 299°
2026-05-06 12:35 45.78297 23.58800 35962 ft 432 kts 299°
2026-05-06 12:36 45.81524 23.51448 35967 ft 439 kts 299°
2026-05-06 12:36 45.84768 23.44038 35971 ft 444 kts 299°
2026-05-06 12:37 45.88067 23.36486 35968 ft 448 kts 299°
2026-05-06 12:37 45.91356 23.28930 35967 ft 451 kts 298°
2026-05-06 12:38 45.94727 23.21300 35968 ft 455 kts 299°
2026-05-06 12:38 45.98141 23.13635 35961 ft 450 kts 299°
2026-05-06 12:39 46.01435 23.06224 35956 ft 433 kts 299°
2026-05-06 12:39 46.04623 22.99001 35956 ft 427 kts 300°
2026-05-06 12:40 46.07768 22.91834 35950 ft 422 kts 301°
2026-05-06 12:40 46.10883 22.84729 35945 ft 421 kts 302°
2026-05-06 12:41 46.14006 22.77604 35942 ft 422 kts 303°
2026-05-06 12:41 46.17137 22.70471 35944 ft 423 kts 303°
2026-05-06 12:42 46.20281 22.63275 35947 ft 423 kts 303°
2026-05-06 12:42 46.23393 22.56128 35953 ft 423 kts 303°
2026-05-06 12:43 46.26506 22.48950 35960 ft 423 kts 303°
2026-05-06 12:43 46.29618 22.41763 35963 ft 423 kts 303°
2026-05-06 12:44 46.32729 22.34554 35966 ft 422 kts 303°
2026-05-06 12:44 46.35822 22.27370 35965 ft 423 kts 302°
2026-05-06 12:45 46.38932 22.20127 35966 ft 423 kts 302°
2026-05-06 12:46 46.43554 22.09330 35966 ft 423 kts 303°
2026-05-06 12:46 46.46640 22.02094 35966 ft 423 kts 303°
2026-05-06 12:47 46.49730 21.94834 35968 ft 423 kts 302°
2026-05-06 12:47 46.52806 21.87585 35971 ft 423 kts 302°
2026-05-06 12:48 46.55862 21.80362 35971 ft 422 kts 302°
2026-05-06 12:48 46.58927 21.73103 35972 ft 423 kts 302°
2026-05-06 12:49 46.61997 21.65811 35973 ft 422 kts 302°
2026-05-06 12:49 46.65042 21.58555 35977 ft 422 kts 303°
2026-05-06 12:50 46.68114 21.51289 35980 ft 422 kts 304°
2026-05-06 12:50 46.71508 21.44390 35975 ft 422 kts 308°
2026-05-06 12:51 46.75048 21.37593 35970 ft 422 kts 308°
2026-05-06 12:51 46.78596 21.30769 35969 ft 422 kts 308°
2026-05-06 12:52 46.82134 21.23946 35968 ft 423 kts 307°
2026-05-06 12:52 46.85664 21.17116 35967 ft 423 kts 308°
2026-05-06 12:53 46.89178 21.10295 35969 ft 422 kts 308°
2026-05-06 12:53 46.92694 21.03443 35968 ft 418 kts 308°
2026-05-06 12:54 46.96151 20.96696 35962 ft 414 kts 309°
2026-05-06 12:54 46.99574 20.90005 35956 ft 411 kts 309°
2026-05-06 12:55 47.02988 20.83321 35948 ft 409 kts 309°
2026-05-06 12:55 47.06387 20.76651 35944 ft 408 kts 309°
2026-05-06 12:56 47.09764 20.70004 35941 ft 408 kts 309°
2026-05-06 12:56 47.13151 20.63320 35941 ft 409 kts 309°
2026-05-06 12:57 47.16518 20.56660 35942 ft 408 kts 309°
2026-05-06 12:57 47.19906 20.49939 35941 ft 409 kts 309°
2026-05-06 12:58 47.23275 20.43240 35941 ft 409 kts 309°
2026-05-06 12:58 47.26624 20.36566 35941 ft 408 kts 309°
2026-05-06 12:59 47.29999 20.29822 35941 ft 408 kts 308°
2026-05-06 12:59 47.33340 20.23130 35941 ft 408 kts 308°
2026-05-06 13:00 47.36703 20.16377 35941 ft 409 kts 308°
2026-05-06 13:00 47.40063 20.09615 35941 ft 409 kts 308°
2026-05-06 13:01 47.43400 20.02883 35941 ft 409 kts 308°
2026-05-06 13:01 47.46733 19.96142 35942 ft 408 kts 308°
2026-05-06 13:02 47.50086 19.89342 35941 ft 408 kts 308°
2026-05-06 13:02 47.53411 19.82582 35939 ft 409 kts 308°
2026-05-06 13:03 47.56761 19.75757 35934 ft 409 kts 308°
2026-05-06 13:03 47.60092 19.68953 35928 ft 409 kts 308°
2026-05-06 13:04 47.63405 19.62170 35921 ft 408 kts 308°
2026-05-06 13:04 47.66723 19.55357 35916 ft 408 kts 308°
2026-05-06 13:05 47.70034 19.48543 35914 ft 409 kts 308°
2026-05-06 13:05 47.73336 19.41729 35885 ft 408 kts 308°
2026-05-06 13:06 47.76650 19.34875 35846 ft 408 kts 308°
2026-05-06 13:06 47.79950 19.28033 35821 ft 409 kts 308°
2026-05-06 13:07 47.83249 19.21174 35810 ft 409 kts 308°
2026-05-06 13:07 47.86554 19.14280 35809 ft 406 kts 308°
2026-05-06 13:08 47.89774 19.07543 35806 ft 398 kts 309°
2026-05-06 13:08 47.92959 19.00867 35806 ft 391 kts 309°
2026-05-06 13:09 47.96050 18.94380 35806 ft 383 kts 310°
2026-05-06 13:09 47.99120 18.87926 35803 ft 381 kts 310°
2026-05-06 13:10 48.02206 18.81479 35802 ft 380 kts 311°
2026-05-06 13:10 48.05445 18.75208 35802 ft 380 kts 312°
2026-05-06 13:11 48.08661 18.69013 35802 ft 380 kts 312°
2026-05-06 13:11 48.11903 18.62749 35804 ft 380 kts 312°
2026-05-06 13:12 48.15143 18.56476 35803 ft 379 kts 312°
2026-05-06 13:12 48.18347 18.50255 35803 ft 380 kts 312°
2026-05-06 13:13 48.21563 18.43997 35803 ft 380 kts 312°
2026-05-06 13:13 48.24784 18.37717 35804 ft 380 kts 312°
2026-05-06 13:14 48.27990 18.31444 35803 ft 380 kts 311°
2026-05-06 13:14 48.31211 18.25135 35803 ft 380 kts 311°
2026-05-06 13:15 48.34420 18.18833 35803 ft 380 kts 311°
2026-05-06 13:15 48.37632 18.12508 35803 ft 380 kts 311°
2026-05-06 13:16 48.40835 18.06188 35803 ft 380 kts 311°
2026-05-06 13:16 48.44029 17.99868 35803 ft 380 kts 311°
2026-05-06 13:17 48.47239 17.93504 35803 ft 380 kts 311°
2026-05-06 13:17 48.50424 17.87175 35803 ft 380 kts 311°
2026-05-06 13:18 48.53629 17.80791 35803 ft 380 kts 311°
2026-05-06 13:18 48.56815 17.74427 35802 ft 380 kts 311°
2026-05-06 13:19 48.59977 17.68100 35803 ft 380 kts 311°
2026-05-06 13:19 48.63179 17.61676 35803 ft 380 kts 311°
2026-05-06 13:20 48.66339 17.55320 35802 ft 380 kts 311°
2026-05-06 13:20 48.69499 17.48952 35812 ft 380 kts 311°
2026-05-06 13:21 48.72669 17.42546 35827 ft 380 kts 311°
2026-05-06 13:21 48.75837 17.36125 35832 ft 380 kts 311°
2026-05-06 13:22 48.78997 17.29706 35834 ft 380 kts 311°
2026-05-06 13:22 48.82142 17.23303 35832 ft 381 kts 311°
2026-05-06 13:23 48.85182 17.16717 35831 ft 383 kts 307°
2026-05-06 13:23 48.87819 17.09751 35828 ft 385 kts 304°
2026-05-06 13:24 48.90363 17.02593 35825 ft 385 kts 304°
2026-05-06 13:24 48.92874 16.95481 35821 ft 379 kts 304°
2026-05-06 13:25 48.95321 16.88527 35816 ft 370 kts 305°
2026-05-06 13:25 48.97715 16.81712 35811 ft 362 kts 305°
2026-05-06 13:26 49.00054 16.75052 35805 ft 356 kts 305°
2026-05-06 13:26 49.02388 16.68399 35803 ft 355 kts 304°
2026-05-06 13:27 49.04691 16.61811 35803 ft 354 kts 304°
2026-05-06 13:27 49.07006 16.55164 35803 ft 354 kts 304°
2026-05-06 13:28 49.09304 16.48544 35803 ft 354 kts 303°
2026-05-06 13:28 49.11594 16.41929 35809 ft 354 kts 303°
2026-05-06 13:29 49.13885 16.35291 35815 ft 353 kts 303°
2026-05-06 13:29 49.16155 16.28686 35822 ft 354 kts 302°
2026-05-06 13:30 49.18447 16.22013 35827 ft 353 kts 302°
2026-05-06 13:30 49.20737 16.15328 35829 ft 353 kts 302°
2026-05-06 13:31 49.23009 16.08672 35829 ft 353 kts 302°
2026-05-06 13:31 49.25288 16.01985 35829 ft 353 kts 302°
2026-05-06 13:32 49.27552 15.95327 35830 ft 353 kts 302°
2026-05-06 13:32 49.29824 15.88628 35829 ft 353 kts 302°
2026-05-06 13:33 49.32075 15.81973 35830 ft 353 kts 302°
2026-05-06 13:33 49.34339 15.75261 35829 ft 353 kts 302°
2026-05-06 13:34 49.36588 15.68575 35828 ft 353 kts 302°
2026-05-06 13:34 49.38831 15.61890 35824 ft 353 kts 302°
2026-05-06 13:35 49.41079 15.55171 35818 ft 353 kts 302°
2026-05-06 13:35 49.43315 15.48469 35813 ft 353 kts 302°
2026-05-06 13:36 49.45544 15.41766 35808 ft 353 kts 302°
2026-05-06 13:36 49.47779 15.35035 35804 ft 353 kts 302°
2026-05-06 13:37 49.50005 15.28306 35804 ft 354 kts 302°
2026-05-06 13:37 49.52226 15.21581 35803 ft 354 kts 302°
2026-05-06 13:38 49.54458 15.14803 35803 ft 354 kts 302°
2026-05-06 13:38 49.56688 15.08013 35802 ft 354 kts 302°
2026-05-06 13:39 49.58906 15.01252 35799 ft 354 kts 301°
2026-05-06 13:39 49.61110 14.94505 35794 ft 355 kts 301°
2026-05-06 13:40 49.63337 14.87674 35787 ft 355 kts 300°
2026-05-06 13:40 49.65545 14.80869 35781 ft 356 kts 300°
2026-05-06 13:41 49.67765 14.74009 35778 ft 356 kts 300°
2026-05-06 13:41 49.69967 14.67191 35776 ft 356 kts 300°
2026-05-06 13:42 49.72168 14.60358 35776 ft 356 kts 300°
2026-05-06 13:42 49.74381 14.53469 35778 ft 356 kts 300°
2026-05-06 13:43 49.76574 14.46623 35783 ft 356 kts 300°
2026-05-06 13:43 49.78766 14.39762 35789 ft 356 kts 300°
2026-05-06 13:44 49.80958 14.32878 35797 ft 356 kts 300°
2026-05-06 13:44 49.83146 14.25989 35800 ft 356 kts 300°
2026-05-06 13:45 49.85326 14.19102 35801 ft 356 kts 300°
2026-05-06 13:45 49.88584 14.08778 35801 ft 356 kts 300°
2026-05-06 13:46 49.90807 14.01924 35801 ft 355 kts 302°
2026-05-06 13:46 49.93208 13.95211 35801 ft 355 kts 302°
2026-05-06 13:47 49.95606 13.88505 35801 ft 355 kts 302°
2026-05-06 13:47 49.98001 13.81793 35800 ft 355 kts 302°
2026-05-06 13:48 50.00387 13.75091 35798 ft 355 kts 302°
2026-05-06 13:48 50.02768 13.68383 35795 ft 355 kts 302°
2026-05-06 13:49 50.05135 13.61700 35794 ft 355 kts 302°
2026-05-06 13:49 50.07503 13.54993 35792 ft 355 kts 302°
2026-05-06 13:50 50.09881 13.48242 35789 ft 354 kts 302°
2026-05-06 13:50 50.12261 13.41462 35787 ft 355 kts 302°
2026-05-06 13:51 50.14617 13.34738 35786 ft 355 kts 302°
2026-05-06 13:51 50.16986 13.27956 35790 ft 355 kts 302°
2026-05-06 13:52 50.19336 13.21213 35795 ft 355 kts 302°
2026-05-06 13:52 50.21692 13.14447 35798 ft 355 kts 301°
2026-05-06 13:53 50.24041 13.07686 35800 ft 355 kts 300°
2026-05-06 13:53 50.26393 13.00888 35801 ft 356 kts 300°
2026-05-06 13:54 50.28736 12.94092 35801 ft 356 kts 299°
2026-05-06 13:54 50.31080 12.87261 35801 ft 356 kts 299°
2026-05-06 13:55 50.33431 12.80396 35801 ft 356 kts 299°
2026-05-06 13:55 50.35764 12.73569 35801 ft 356 kts 299°
2026-05-06 13:56 50.38108 12.66696 35801 ft 356 kts 299°
2026-05-06 13:56 50.40591 12.59965 35801 ft 356 kts 302°
2026-05-06 13:57 50.43185 12.53339 35801 ft 356 kts 302°
2026-05-06 13:57 50.45770 12.46727 35800 ft 356 kts 302°
2026-05-06 13:58 50.48347 12.40116 35797 ft 356 kts 302°
2026-05-06 13:58 50.50918 12.33507 35797 ft 356 kts 301°
2026-05-06 13:59 50.53505 12.26839 35796 ft 356 kts 301°
2026-05-06 13:59 50.56079 12.20192 35798 ft 356 kts 301°
2026-05-06 14:00 50.58650 12.13534 35800 ft 356 kts 301°
2026-05-06 14:00 50.61232 12.06827 35800 ft 356 kts 301°
2026-05-06 14:01 50.63795 12.00158 35801 ft 356 kts 301°
2026-05-06 14:01 50.66352 11.93485 35801 ft 356 kts 301°
2026-05-06 14:02 50.68892 11.86836 35801 ft 356 kts 301°
2026-05-06 14:02 50.71453 11.80116 35801 ft 356 kts 301°
2026-05-06 14:03 50.74004 11.73407 35801 ft 356 kts 301°
2026-05-06 14:03 50.76571 11.66637 35801 ft 356 kts 301°
2026-05-06 14:04 50.79115 11.59909 35800 ft 356 kts 301°
2026-05-06 14:04 50.81647 11.53197 35796 ft 356 kts 301°
2026-05-06 14:05 50.84181 11.46461 35791 ft 356 kts 301°
2026-05-06 14:05 50.86706 11.39729 35830 ft 356 kts 301°
2026-05-06 14:06 50.89251 11.32929 35917 ft 356 kts 301°
2026-05-06 14:06 50.91756 11.26225 35967 ft 354 kts 300°
2026-05-06 14:07 50.94262 11.19502 35988 ft 352 kts 300°
2026-05-06 14:07 50.96736 11.12840 35997 ft 351 kts 300°
2026-05-06 14:08 50.99200 11.06188 36000 ft 349 kts 299°
2026-05-06 14:08 51.01656 10.99549 36001 ft 348 kts 298°
2026-05-06 14:09 51.04106 10.92910 36001 ft 348 kts 297°
2026-05-06 14:09 51.06548 10.86263 36000 ft 349 kts 296°
2026-05-06 14:10 51.08985 10.79610 36000 ft 351 kts 296°
2026-05-06 14:10 51.11459 10.72826 36001 ft 352 kts 296°
2026-05-06 14:11 51.13907 10.66101 36001 ft 352 kts 296°
2026-05-06 14:11 51.16365 10.59333 36001 ft 352 kts 296°
2026-05-06 14:12 51.18820 10.52560 36001 ft 352 kts 296°
2026-05-06 14:12 51.21276 10.45765 36001 ft 352 kts 296°
2026-05-06 14:13 51.23650 10.38972 36001 ft 351 kts 294°
2026-05-06 14:13 51.25664 10.31896 36003 ft 349 kts 289°
2026-05-06 14:14 51.27302 10.24624 35991 ft 348 kts 287°
2026-05-06 14:14 51.28867 10.17259 35950 ft 348 kts 287°
2026-05-06 14:15 51.30405 10.09954 35893 ft 348 kts 287°
2026-05-06 14:15 51.31946 10.02592 35835 ft 348 kts 287°
2026-05-06 14:16 51.33486 9.95197 35801 ft 349 kts 287°
2026-05-06 14:16 51.35006 9.87869 35785 ft 349 kts 287°
2026-05-06 14:17 51.36533 9.80476 35779 ft 349 kts 287°
2026-05-06 14:17 51.38051 9.73093 35777 ft 349 kts 287°
2026-05-06 14:18 51.39562 9.65723 35776 ft 349 kts 287°
2026-05-06 14:18 51.41070 9.58334 35471 ft 348 kts 287°
2026-05-06 14:19 51.41819 9.54655 35221 ft 346 kts 287°
2026-05-06 14:19 51.42561 9.51004 34970 ft 344 kts 286°
2026-05-06 14:19 51.43296 9.47385 34720 ft 341 kts 286°
2026-05-06 14:19 51.44027 9.43775 34469 ft 340 kts 286°
2026-05-06 14:20 51.44747 9.40206 34222 ft 340 kts 286°
2026-05-06 14:20 51.45475 9.36598 33972 ft 341 kts 286°
2026-05-06 14:20 51.46208 9.32952 33723 ft 342 kts 286°
2026-05-06 14:20 51.46931 9.29352 33474 ft 343 kts 286°
2026-05-06 14:21 51.47669 9.25679 33222 ft 344 kts 286°
2026-05-06 14:21 51.48399 9.22028 32972 ft 345 kts 285°
2026-05-06 14:21 51.49134 9.18351 32721 ft 347 kts 285°
2026-05-06 14:21 51.49871 9.14650 32470 ft 348 kts 285°
2026-05-06 14:22 51.50547 9.10890 32218 ft 349 kts 283°
2026-05-06 14:22 51.51125 9.07092 31966 ft 350 kts 281°
2026-05-06 14:22 51.51664 9.03301 31718 ft 351 kts 281°
2026-05-06 14:22 51.52204 8.99484 31468 ft 352 kts 281°
2026-05-06 14:23 51.52749 8.95612 31215 ft 352 kts 281°
2026-05-06 14:23 51.53166 8.91805 30964 ft 351 kts 275°
2026-05-06 14:23 51.53371 8.87897 30715 ft 349 kts 274°
2026-05-06 14:23 51.53553 8.83994 30463 ft 348 kts 273°
2026-05-06 14:24 51.53729 8.80128 30212 ft 347 kts 273°
2026-05-06 14:24 51.53905 8.76274 29961 ft 346 kts 273°
2026-05-06 14:24 51.54080 8.72412 29709 ft 345 kts 273°
2026-05-06 14:24 51.54254 8.68572 29457 ft 344 kts 273°
2026-05-06 14:25 51.54425 8.64754 29207 ft 343 kts 273°
2026-05-06 14:25 51.54596 8.60934 28956 ft 342 kts 273°
2026-05-06 14:25 51.54765 8.57139 28705 ft 341 kts 273°
2026-05-06 14:25 51.54933 8.53346 28455 ft 341 kts 273°
2026-05-06 14:26 51.55100 8.49550 28204 ft 340 kts 273°
2026-05-06 14:26 51.55264 8.45782 27954 ft 339 kts 273°
2026-05-06 14:26 51.55427 8.42008 27835 ft 338 kts 273°
2026-05-06 14:26 51.55589 8.38232 27832 ft 339 kts 273°
2026-05-06 14:27 51.55750 8.34442 27831 ft 339 kts 272°
2026-05-06 14:27 51.55907 8.30720 27831 ft 339 kts 272°
2026-05-06 14:27 51.56068 8.26907 27830 ft 339 kts 272°
2026-05-06 14:27 51.56226 8.23139 27829 ft 339 kts 272°
2026-05-06 14:28 51.56383 8.19351 27829 ft 339 kts 272°
2026-05-06 14:28 51.56538 8.15570 27829 ft 339 kts 272°
2026-05-06 14:28 51.56692 8.11788 27829 ft 339 kts 272°
2026-05-06 14:28 51.56844 8.08030 27701 ft 339 kts 272°
2026-05-06 14:29 51.56997 8.04243 27447 ft 337 kts 272°
2026-05-06 14:29 51.57146 8.00489 27196 ft 336 kts 272°
2026-05-06 14:29 51.57294 7.96732 26945 ft 336 kts 272°
2026-05-06 14:29 51.57440 7.93003 26695 ft 335 kts 272°
2026-05-06 14:30 51.57585 7.89261 26443 ft 334 kts 272°
2026-05-06 14:30 51.57730 7.85517 26191 ft 333 kts 272°
2026-05-06 14:30 51.57870 7.81821 25941 ft 333 kts 272°
2026-05-06 14:30 51.58013 7.78057 25686 ft 332 kts 272°
2026-05-06 14:31 51.58150 7.74385 25437 ft 331 kts 272°
2026-05-06 14:31 51.58289 7.70677 25185 ft 330 kts 272°
2026-05-06 14:31 51.58423 7.67020 24936 ft 330 kts 272°
2026-05-06 14:31 51.58558 7.63328 24684 ft 329 kts 272°
2026-05-06 14:32 51.58693 7.59620 24430 ft 328 kts 272°
2026-05-06 14:32 51.58824 7.55972 24180 ft 328 kts 272°
2026-05-06 14:32 51.58953 7.52333 23931 ft 327 kts 272°
2026-05-06 14:32 51.59083 7.48666 23678 ft 326 kts 272°
2026-05-06 14:33 51.59211 7.45012 23426 ft 326 kts 272°
2026-05-06 14:33 51.59336 7.41376 23175 ft 325 kts 271°
2026-05-06 14:33 51.59462 7.37731 22923 ft 324 kts 271°
2026-05-06 14:33 51.59584 7.34127 22675 ft 324 kts 271°
2026-05-06 14:34 51.59706 7.30499 22423 ft 323 kts 271°
2026-05-06 14:34 51.59827 7.26877 22171 ft 322 kts 271°
2026-05-06 14:34 51.59947 7.23270 21920 ft 322 kts 271°
2026-05-06 14:34 51.60066 7.19649 21667 ft 321 kts 271°
2026-05-06 14:35 51.60184 7.16049 21415 ft 321 kts 271°
2026-05-06 14:35 51.60300 7.12442 21162 ft 320 kts 271°
2026-05-06 14:35 51.60414 7.08893 20912 ft 320 kts 270°
2026-05-06 14:35 51.60527 7.05302 20660 ft 320 kts 270°
2026-05-06 14:36 51.60640 7.01707 20407 ft 320 kts 270°
2026-05-06 14:36 51.60751 6.98129 20156 ft 320 kts 270°
2026-05-06 14:36 51.60859 6.94576 19907 ft 320 kts 270°
2026-05-06 14:36 51.60968 6.90986 19655 ft 320 kts 270°
2026-05-06 14:37 51.61075 6.87401 19403 ft 320 kts 270°
2026-05-06 14:37 51.61180 6.83851 19154 ft 319 kts 270°
2026-05-06 14:37 51.61286 6.80240 18899 ft 319 kts 270°
2026-05-06 14:37 51.61391 6.76663 18647 ft 318 kts 270°
2026-05-06 14:38 51.61493 6.73116 18397 ft 318 kts 270°
2026-05-06 14:38 51.61595 6.69519 18143 ft 318 kts 270°
2026-05-06 14:38 51.61695 6.66001 17894 ft 317 kts 270°
2026-05-06 14:38 51.61794 6.62454 17643 ft 317 kts 270°
2026-05-06 14:39 51.61892 6.58912 17392 ft 316 kts 270°
2026-05-06 14:39 51.61989 6.55332 17138 ft 316 kts 270°
2026-05-06 14:39 51.62084 6.51826 16888 ft 315 kts 270°
2026-05-06 14:39 51.62178 6.48313 16638 ft 315 kts 271°
2026-05-06 14:40 51.62270 6.44800 16388 ft 315 kts 271°
2026-05-06 14:40 51.62363 6.41271 16136 ft 314 kts 271°
2026-05-06 14:40 51.62453 6.37768 15886 ft 314 kts 271°
2026-05-06 14:40 51.62542 6.34270 15636 ft 313 kts 270°
2026-05-06 14:41 51.62630 6.30768 15386 ft 313 kts 270°
2026-05-06 14:41 51.62717 6.27270 15135 ft 313 kts 270°
2026-05-06 14:41 51.62802 6.23768 14884 ft 312 kts 270°
2026-05-06 14:41 51.62887 6.20268 14632 ft 312 kts 270°
2026-05-06 14:42 51.62970 6.16804 14383 ft 312 kts 270°
2026-05-06 14:42 51.63012 6.13323 14131 ft 311 kts 266°
2026-05-06 14:42 51.62778 6.09892 13880 ft 310 kts 258°
2026-05-06 14:42 51.62230 6.06510 13627 ft 309 kts 251°
2026-05-06 14:43 51.61522 6.03280 13385 ft 309 kts 250°
2026-05-06 14:43 51.60776 6.00009 13128 ft 309 kts 250°
2026-05-06 14:43 51.60041 5.96806 12770 ft 308 kts 250°
2026-05-06 14:43 51.59295 5.93550 12339 ft 308 kts 250°
2026-05-06 14:44 51.58563 5.90357 11883 ft 309 kts 250°
2026-05-06 14:44 51.57817 5.87113 11416 ft 310 kts 250°
2026-05-06 14:44 51.57063 5.83838 10950 ft 311 kts 250°
2026-05-06 14:45 51.55551 5.77273 10217 ft 304 kts 251°
2026-05-06 14:45 51.54819 5.74096 10085 ft 293 kts 251°
2026-05-06 14:45 51.54129 5.71103 9949 ft 283 kts 251°
2026-05-06 14:45 51.53448 5.68156 9665 ft 279 kts 251°
2026-05-06 14:46 51.52771 5.65222 9341 ft 276 kts 251°
2026-05-06 14:46 51.52106 5.62355 8944 ft 277 kts 251°
2026-05-06 14:46 51.51432 5.59448 8582 ft 277 kts 252°
2026-05-06 14:46 51.50769 5.56578 8241 ft 275 kts 252°
2026-05-06 14:47 51.50090 5.53655 7840 ft 276 kts 252°
2026-05-06 14:47 51.49419 5.50769 7411 ft 278 kts 252°
2026-05-06 14:47 51.48747 5.47873 7140 ft 273 kts 252°
2026-05-06 14:47 51.48080 5.45021 6831 ft 271 kts 252°
2026-05-06 14:48 51.47411 5.42165 6368 ft 275 kts 253°
2026-05-06 14:48 51.46836 5.39255 6018 ft 273 kts 259°
2026-05-06 14:48 51.46456 5.36286 5598 ft 274 kts 263°
2026-05-06 14:48 51.46155 5.33356 5328 ft 271 kts 263°
2026-05-06 14:49 51.45855 5.30343 4987 ft 270 kts 263°
2026-05-06 14:49 51.45554 5.27351 4710 ft 267 kts 263°
2026-05-06 14:49 51.45257 5.24422 4377 ft 266 kts 263°
2026-05-06 14:49 51.44748 5.21538 3873 ft 277 kts 242°
2026-05-06 14:50 51.43429 5.19322 3676 ft 274 kts 218°
2026-05-06 14:50 51.41882 5.17616 3579 ft 264 kts 215°
2026-05-06 14:50 51.40379 5.16014 3511 ft 253 kts 216°
2026-05-06 14:50 51.38905 5.14535 3307 ft 250 kts 203°
2026-05-06 14:51 51.37233 5.14247 3101 ft 244 kts 165°
2026-05-06 14:51 51.35841 5.15662 2963 ft 234 kts 123°
2026-05-06 14:51 51.35135 5.17918 2844 ft 225 kts 109°
2026-05-06 14:51 51.34531 5.20218 2583 ft 225 kts 112°
2026-05-06 14:52 51.33804 5.22425 2372 ft 217 kts 116°
2026-05-06 14:52 51.33318 5.24557 2310 ft 192 kts 86°
2026-05-06 14:52 51.33787 5.26282 2293 ft 165 kts 37°
2026-05-06 14:52 51.34753 5.27027 2253 ft 146 kts 20°
2026-05-06 14:53 51.35663 5.27589 2043 ft 139 kts 20°
2026-05-06 14:53 51.36519 5.28258 1855 ft 136 kts 27°
2026-05-06 14:53 51.37339 5.29005 1670 ft 135 kts 27°
2026-05-06 14:53 51.38145 5.29787 1496 ft 136 kts 31°
2026-05-06 14:54 51.38933 5.30630 1321 ft 135 kts 33°
2026-05-06 14:54 51.39689 5.31478 1148 ft 134 kts 34°
2026-05-06 14:54 51.40452 5.32337 971 ft 134 kts 35°
2026-05-06 14:54 51.41226 5.33209 786 ft 135 kts 32°
2026-05-06 14:55 51.41984 5.34058 608 ft 135 kts 32°
2026-05-06 14:55 51.42760 5.34927 443 ft 134 kts 33°
2026-05-06 14:55 51.43524 5.35771 244 ft 133 kts 33°
2026-05-06 14:55 51.44275 5.36622 90 ft 130 kts 32°
2026-05-06 14:56 51.44930 5.37361 83 ft 97 kts 35°
2026-05-06 14:56 51.45364 5.37845 83 ft 50 kts 34°
2026-05-06 14:56 51.45536 5.38040 83 ft 16 kts 34°
2026-05-06 14:56 51.45654 5.38169 83 ft 20 kts 34°
2026-05-06 14:57 51.45766 5.38295 83 ft 19 kts 35°
2026-05-06 14:57 51.45872 5.38417 83 ft 17 kts 40°
2026-05-06 14:57 51.45869 5.38540 83 ft 8 kts 124°
2026-05-06 14:57 51.45835 5.38623 83 ft 9 kts 121°
2026-05-06 14:58 51.45799 5.38718 83 ft 10 kts 121°
2026-05-06 14:58 51.45752 5.38782 83 ft 8 kts 155°
2026-05-06 14:58 51.45715 5.38839 83 ft 7 kts 125°
2026-05-06 14:58 51.45699 5.38876 83 ft 2 kts 124°
2026-05-06 14:59 51.45696 5.38883 83 ft 0 kts 124°